EW2420 Weather Reports


time (UTC)temp
C
wind
direction
speed
KPH
gust
KPH
rain 1hr
cm
rain 24hr
cm
rain mn
cm
humidity
%
barometer
mb
20260504044507 7 215 9.7 14.5 0.00 0.18 0.18 95 1000.7
20260504043006 7 219 8.0 12.9 0.00 0.18 0.18 95 1000.8
20260504041546 7 205 8.0 11.3 0.00 0.18 0.18 95 1000.9
20260504040045 7 312 0.0 0.0 0.00 0.18 0.18 95 1001.1
20260504034526 7 312 0.0 0.0 0.00 0.18 0.18 95 1001.1
20260504033025 7 312 0.0 1.6 0.03 0.18 0.18 94 1001.2
20260504031507 7 312 0.0 1.6 0.08 0.18 0.18 94 1001.1
20260504030013 7 312 0.0 9.7 0.13 0.18 0.18 94 1001.5
20260504024552 7 302 6.4 14.5 0.15 0.18 0.18 93 1001.6
20260504023047 7 302 11.3 20.9 0.13 0.15 0.15 93 1001.9
20260504021525 7 300 12.9 22.5 0.08 0.10 0.10 93 1002.2
20260504020023 7 303 8.0 14.5 0.03 0.05 0.05 92 1002.1
20260504014503 7 327 3.2 11.3 0.00 0.03 0.03 91 1002.0
20260504013004 7 334 6.4 12.9 0.00 0.03 0.03 92 1001.9
20260504011547 7 294 1.6 11.3 0.00 0.03 0.03 92 1001.8
20260504010046 6 286 1.6 8.0 0.03 0.03 0.03 92 1001.8
20260504004615 6 321 0.0 3.2 0.03 0.03 0.03 91 1001.7
20260504003048 6 322 3.2 8.0 0.03 0.03 0.03 90 1001.9
20260504001600 7 327 1.6 11.3 0.03 0.03 0.03 87 1001.9
20260504000035 7 311 1.6 20.9 0.00 0.00 0.00 83 1002.1
20260503234533 7 223 4.8 11.3 0.00 0.00 0.00 81 1002.1
20260503233035 8 321 8.0 19.3 0.00 0.00 0.00 78 1002.2
20260503231510 8 325 8.0 19.3 0.00 0.00 0.00 74 1002.1
20260503230006 8 319 4.8 16.1 0.00 0.00 0.00 70 1002.2
20260503224544 10 248 8.0 20.9 0.00 0.00 0.00 66 1002.2
20260503223040 10 307 3.2 12.9 0.00 0.00 0.00 62 1002.0
20260503221517 10 340 6.4 22.5 0.00 0.00 0.00 59 1002.1
20260503220015 10 311 4.8 17.7 0.00 0.00 0.00 57 1002.1
20260503214600 11 219 9.7 16.1 0.00 0.00 0.00 53 1002.1
20260503213055 11 267 3.2 9.7 0.00 0.00 0.00 50 1002.2
20260503211536 10 240 3.2 11.3 0.00 0.00 0.00 50 1002.3
20260503210036 11 223 6.4 17.7 0.00 0.00 0.00 48 1002.3
20260503204517 11 263 4.8 16.1 0.00 0.00 0.00 46 1002.4
20260503203035 11 288 4.8 20.9 0.00 0.00 0.00 44 1002.5
20260503201555 12 298 6.4 19.3 0.00 0.00 0.00 41 1002.8
20260503200054 12 323 8.0 30.6 0.00 0.00 0.00 42 1002.9
20260503194541 12 50 4.8 22.5 0.00 0.00 0.00 41 1003.2
20260503193037 12 321 12.9 24.1 0.00 0.00 0.00 39 1003.4
20260503191512 12 318 16.1 30.6 0.00 0.00 0.00 37 1003.7
20260503190011 12 260 16.1 30.6 0.00 0.00 0.00 34 1004.0
20260503184609 11 250 11.3 30.6 0.00 0.00 0.00 43 1004.1
20260503183049 11 209 9.7 24.1 0.00 0.00 0.00 48 1004.2
20260503181557 11 203 14.5 29.0 0.00 0.00 0.00 44 1004.3
20260503180034 11 190 4.8 24.1 0.00 0.00 0.00 44 1004.5
20260503174527 11 226 8.0 16.1 0.00 0.00 0.00 49 1004.5
20260503173008 10 182 9.7 20.9 0.00 0.00 0.00 47 1004.7
20260503171505 10 219 3.2 20.9 0.00 0.00 0.00 45 1004.9
20260503081514 -1 314 0.0 3.2 0.00 0.00 0.00 79 1007.5
20260503071524 0 322 4.8 9.7 0.00 0.00 0.00 74 1007.4
20260503054503 1 317 9.7 12.9 0.00 0.00 0.00 75 1007.9
20260503053006 1 314 9.7 12.9 0.00 0.00 0.00 73 1007.9
20260503051559 1 315 8.0 11.3 0.00 0.00 0.00 73 1008.1
20260503050039 2 315 8.0 12.9 0.00 0.00 0.00 71 1008.0